Location: Chippewa Lake
(41.0698°N, 81.9010°W)
Time: 00:37:12
(UTC+00:00)

Nadezhda 1 Rocket - Pass Details

Date: 09 May 2021
Orbit: 940 x 1006 km, 83.0° (Epoch: 24 June)

Event Time Altitude Azimuth Distance (km) Brightness Sun altitude
Exits shadow 03:05:37 40° 106° (ESE) 1,420 4.4 -23.3°
Maximum altitude 03:06:21 42° 89° (E) 1,387 4.5 -23.4°
Drops below altitude 10° 03:12:11 10° 21° (NNE) 2,741 6.8 -24.0°
Sets 03:14:48 0° 15° (NNE) 3,683 7.6 -24.3°
